GW4224 Weather Reports


Display with metric or nautical units.
time (UTC)temp
F
wind
direction
speed
MPH
gust
MPH
rain 1hr
in
rain 24hr
in
rain mn
in
humidity
%
barometer
mb
20260510181555 86 78 0.0 3.0 0.00 0.04 0.00 69 1016.0
20260510180105 87 30 0.0 2.0 0.00 0.04 0.00 68 1015.7
20260510174605 87 19 1.0 7.0 0.00 0.04 0.00 65 1015.9
20260510173102 87 200 1.0 6.0 0.00 0.04 0.00 63 1016.2
20260510171554 89 229 3.0 8.0 0.00 0.04 0.00 59 1016.2
20260510170058 89 11 1.0 5.0 0.00 0.04 0.00 62 1016.4
20260510164609 88 320 1.0 4.0 0.00 0.04 0.00 64 1016.4
20260510163053 88 334 2.0 11.0 0.00 0.04 0.00 63 1016.8
20260510161556 88 256 2.0 6.0 0.00 0.04 0.00 62 1017.3
20260510160054 87 190 1.0 4.0 0.00 0.04 0.00 64 1017.1
20260510154556 87 253 3.0 8.0 0.00 0.04 0.00 63 1017.2
20260510153051 87 211 2.0 7.0 0.00 0.04 0.00 64 1017.0
20260510151556 85 202 4.0 9.0 0.00 0.04 0.00 67 1016.9
20260510150120 84 360 2.0 6.0 0.00 0.04 0.00 69 1017.1
20260510144615 83 360 1.0 5.0 0.00 0.04 0.00 70 1016.9
20260510143058 82 64 1.0 7.0 0.00 0.04 0.00 73 1016.9
20260510141556 81 288 1.0 5.0 0.00 0.04 0.00 74 1016.8
20260510140056 80 221 1.0 4.0 0.00 0.04 0.00 76 1016.9
20260510134606 79 214 1.0 5.0 0.00 0.04 0.00 77 1017.0
20260510133054 77 149 0.0 2.0 0.00 0.04 0.00 81 1016.8
20260510131601 77 252 1.0 4.0 0.00 0.04 0.00 81 1016.8
20260510130055 76 0 1.0 4.0 0.00 0.04 0.00 85 1016.7
20260510124556 74 0 1.0 4.0 0.00 0.04 0.00 89 1016.6
20260510123057 73 294 0.0 2.0 0.00 0.04 0.00 91 1016.5
20260510121602 72 0 0.0 2.0 0.00 0.04 0.00 92 1016.3
20260510120057 72 291 0.0 2.0 0.00 0.04 0.00 92 1016.1
20260510114609 71 294 0.0 2.0 0.00 0.04 0.00 92 1015.9
20260510113059 70 0 0.0 2.0 0.00 0.04 0.00 92 1015.4
20260510111559 70 0 0.0 1.0 0.00 0.04 0.00 92 1015.1
20260510110054 70 0 0.0 0.0 0.00 0.04 0.00 92 1014.7
20260510104615 70 0 0.0 0.0 0.00 0.04 0.00 92 1014.6
20260510103101 70 0 0.0 0.0 0.00 0.04 0.00 92 1014.5
20260510101609 70 0 0.0 0.0 0.00 0.04 0.00 92 1014.4
20260510094605 70 0 0.0 2.0 0.00 0.04 0.00 92 1014.1
20260510093057 71 0 0.0 2.0 0.00 0.04 0.00 92 1014.1
20260510091554 70 0 0.0 0.0 0.00 0.04 0.00 92 1013.9
20260510090111 71 0 0.0 2.0 0.00 0.04 0.00 92 1013.9
20260510084553 70 0 0.0 0.0 0.00 0.04 0.00 92 1013.7
20260510083053 70 0 0.0 1.0 0.00 0.04 0.00 92 1013.5
20260510081600 70 0 0.0 1.0 0.00 0.04 0.00 91 1013.6
20260510080100 70 0 0.0 2.0 0.00 0.04 0.00 91 1013.7
20260510074606 70 0 0.0 0.0 0.00 0.04 0.00 91 1013.7
20260510073059 70 0 0.0 2.0 0.00 0.04 0.00 91 1013.9
20260510071602 70 294 0.0 2.0 0.00 0.04 0.00 91 1014.1
20260510070109 70 0 0.0 1.0 0.00 0.04 0.00 91 1014.1
20260510064601 71 294 0.0 2.0 0.00 0.04 0.00 91 1014.2
20260510063102 70 0 0.0 0.0 0.00 0.04 0.00 91 1014.4
20260510061555 70 0 0.0 0.0 0.00 0.04 0.00 91 1014.6
20260510060051 71 0 0.0 0.0 0.00 0.04 0.00 91 1014.8
20260510054600 71 0 0.0 0.0 0.00 0.04 0.00 91 1014.8
20260510053055 71 0 0.0 2.0 0.00 0.04 0.00 90 1015.0
20260510051634 71 0 0.0 2.0 0.00 0.04 0.00 90 1015.1
20260510051555 71 0 0.0 2.0 0.00 0.04 0.00 90 1015.1
20260510050059 71 0 0.0 0.0 0.00 0.04 0.00 90 1015.2
20260510044606 71 0 0.0 0.0 0.00 0.04 0.00 89 1015.5
20260510043106 71 0 0.0 0.0 0.00 0.04 0.00 89 1015.6
20260510041559 71 0 0.0 0.0 0.00 0.04 0.00 89 1015.5
20260510034557 71 0 0.0 0.0 0.00 0.04 0.04 89 1015.4
20260510033121 71 0 0.0 0.0 0.00 0.04 0.04 88 1015.6
20260510031629 71 0 0.0 0.0 0.00 0.04 0.04 88 1015.4
20260510030057 71 0 0.0 0.0 0.00 0.04 0.04 87 1015.5
20260510024559 72 0 0.0 0.0 0.00 0.04 0.04 86 1015.3
20260510023057 72 0 0.0 0.0 0.00 0.04 0.04 86 1015.3
20260510021601 73 0 0.0 0.0 0.00 0.04 0.04 85 1015.2
20260510020107 73 0 0.0 0.0 0.00 0.04 0.04 84 1015.1
20260510014607 74 0 0.0 0.0 0.00 0.04 0.04 83 1014.9
20260510013056 75 0 0.0 1.0 0.00 0.04 0.04 81 1014.8
20260510011559 76 0 0.0 2.0 0.00 0.04 0.04 79 1014.7
20260510004558 78 0 0.0 1.0 0.00 0.04 0.04 79 1014.2
20260510003101 78 329 2.0 6.0 0.00 0.04 0.04 76 1014.2
20260510001556 80 329 1.0 8.0 0.00 0.04 0.04 76 1013.9
20260510000058 82 0 0.0 3.0 0.00 0.04 0.04 70 1013.6
20260509234608 82 294 1.0 5.0 0.00 0.04 0.04 66 1013.6
20260509233053 83 223 2.0 6.0 0.00 0.04 0.04 66 1013.3
20260509231556 84 351 3.0 8.0 0.00 0.04 0.04 64 1013.2
20260509224553 85 331 3.0 8.0 0.00 0.04 0.04 60 1012.8
20260509223100 86 267 2.0 6.0 0.00 0.04 0.04 61 1012.5
20260509221555 87 316 2.0 5.0 0.00 0.04 0.04 63 1012.2
20260509220104 87 265 2.0 7.0 0.00 0.04 0.04 63 1012.1
20260509214554 88 165 1.0 5.0 0.00 0.04 0.04 64 1012.2
20260509213055 88 291 2.0 4.0 0.00 0.04 0.04 61 1012.0
20260509211604 88 300 2.0 5.0 0.00 0.04 0.04 64 1011.9
20260509210101 85 290 1.0 3.0 0.00 0.04 0.04 71 1011.9
20260509204600 83 327 1.0 9.0 0.00 0.04 0.04 73 1012.0
20260509203058 81 271 0.0 3.0 0.00 0.04 0.04 79 1011.9
20260509201553 79 202 0.0 2.0 0.03 0.04 0.04 85 1011.9
20260509200054 79 0 0.0 2.0 0.04 0.04 0.04 82 1012.2
20260509194557 80 202 1.0 7.0 0.04 0.04 0.04 77 1012.0
20260509193058 80 39 0.0 3.0 0.04 0.04 0.04 77 1012.4
20260509191601 83 221 2.0 9.0 0.01 0.01 0.01 70 1012.6
20260509190100 88 221 5.0 13.0 0.00 0.00 0.00 59 1012.5
20260509184554 92 168 3.0 10.0 0.00 0.00 0.00 50 1012.4
20260509183057 93 250 3.0 9.0 0.00 0.00 0.00 48 1012.5